sat.trackr.live / text

‹ back to catalog

STARLINK-30757

NORAD 58131 · 2023-162P

PAYLOAD ACTIVE UNKNOWN

§ Identity

Operator
Country
US
Launch date
2023-10-22
Launch site
AFETR
Launch vehicle
Mass (kg)
RCS (m²)

Purposes: comms

External: N2YO · Heavens-Above · Gunter

§ Orbital elements

Epoch: 2026-09-20T22:00:26.565696Z

Period
94.27 min
Inclination
43.0022°
Eccentricity
0.0001217
Mean motion
15.27578422 rev/d
Perigee alt
482.2 km
Apogee alt
483.9 km
Semi-major
6,861.2 km
B*
2.2987e-5
RAAN
106.6193°
Arg perigee
272.5632°
Mean anomaly
87.5080°
Rev number
16,220

§ Raw data

STARLINK-307571 58131U 23162P   26263.91697414  .00000370  00000+0  22987-4 0  99932 58131  43.0022 106.6193 0001217 272.5632  87.5080 15.27578422162207

JSON: /api/v1/satellites/58131 · /tle

For live sub-satellite position, see the globe view (requires WebGL).

§ Visibility from observer

Set your observer location to see the next 7 days of passes ≥ 10°. The values pass through the URL so the page stays shareable.

No JS? Fill the form by hand. The geolocation button needs JavaScript.